FW5215 Weather Reports


Display with metric or nautical units.
time (UTC)temp
F
wind
direction
speed
MPH
gust
MPH
rain 1hr
in
rain 24hr
in
rain mn
in
humidity
%
barometer
mb
20260906153013 76 107 3.0 9.0 0.00 0.00 0.00 75 1019.7
20260906151506 76 139 4.0 9.0 0.00 0.00 0.00 78 1019.8
20260906150104 75 172 2.0 8.0 0.00 0.00 0.00 80 1019.9
20260906144508 75 140 2.0 8.0 0.00 0.00 0.00 80 1020.1
20260906143116 74 154 2.0 5.0 0.00 0.00 0.00 82 1020.1
20260906141508 73 124 1.0 8.0 0.00 0.00 0.00 86 1020.1
20260906140010 71 130 2.0 7.0 0.00 0.00 0.00 88 1020.4
20260906134604 69 132 2.0 6.0 0.00 0.00 0.00 92 1020.2
20260906133011 67 109 0.0 3.0 0.00 0.00 0.00 96 1019.9
20260906131615 66 100 1.0 3.0 0.00 0.00 0.00 99 1019.8
20260906130106 64 3 0.0 2.0 0.00 0.00 0.00 99 1019.8
20260906124514 63 1 0.0 1.0 0.00 0.00 0.00 98 1019.8
20260906123013 62 102 0.0 1.0 0.00 0.00 0.00 97 1019.6
20260906121608 61 334 0.0 0.0 0.00 0.00 0.00 97 1019.7
20260906120010 61 334 0.0 0.0 0.00 0.00 0.00 96 1019.6
20260906114508 61 334 0.0 0.0 0.00 0.00 0.00 96 1019.5
20260906113006 61 334 0.0 1.0 0.00 0.00 0.00 96 1019.2
20260906111607 61 334 0.0 0.0 0.00 0.00 0.00 96 1019.1
20260906110016 62 334 0.0 0.0 0.00 0.00 0.00 96 1018.9
20260906104514 62 334 0.0 0.0 0.00 0.00 0.00 95 1018.8
20260906103009 62 86 0.0 1.0 0.00 0.00 0.00 95 1018.7
20260906101505 63 36 0.0 1.0 0.00 0.00 0.00 95 1018.8
20260906100110 63 53 0.0 2.0 0.00 0.00 0.00 96 1018.6
20260906093004 64 39 0.0 1.0 0.00 0.00 0.00 95 1018.6
20260906091523 64 59 0.0 2.0 0.00 0.00 0.00 96 1018.5
20260906090010 64 26 0.0 2.0 0.00 0.00 0.00 95 1018.7
20260906084645 64 28 0.0 2.0 0.00 0.00 0.00 95 1018.6
20260906083007 65 30 0.0 1.0 0.00 0.00 0.00 95 1018.5
20260906081528 65 39 0.0 1.0 0.00 0.00 0.00 95 1018.5
20260906080004 65 36 0.0 1.0 0.00 0.00 0.00 95 1018.5
20260906074505 65 84 0.0 0.0 0.00 0.00 0.00 95 1018.5
20260906073110 65 84 0.0 1.0 0.00 0.00 0.00 95 1018.3
20260906071511 65 40 0.0 1.0 0.00 0.00 0.00 95 1018.4
20260906070014 65 78 0.0 1.0 0.00 0.00 0.00 95 1018.6
20260906064509 65 39 0.0 1.0 0.00 0.00 0.00 95 1018.8
20260906063003 65 43 0.0 2.0 0.00 0.00 0.00 95 1018.8
20260906060011 65 41 0.0 2.0 0.00 0.00 0.00 94 1018.6
20260906054510 66 54 0.0 1.0 0.00 0.00 0.00 94 1018.7
20260906053009 66 36 0.0 1.0 0.00 0.00 0.00 94 1018.7
20260906051508 66 36 0.0 1.0 0.00 0.00 0.00 93 1018.7
20260906050021 66 39 0.0 1.0 0.00 0.00 0.00 93 1018.7
20260906044506 66 18 0.0 2.0 0.00 0.00 0.00 93 1018.9
20260906043008 66 15 0.0 2.0 0.00 0.00 0.00 93 1018.8
20260906041604 66 45 0.0 1.0 0.00 0.00 0.00 93 1018.8
20260906040013 66 30 0.0 1.0 0.00 0.00 0.00 93 1018.7
20260906034513 67 30 0.0 1.0 0.00 0.00 0.00 93 1018.8
20260906033008 67 25 0.0 1.0 0.00 0.00 0.00 92 1018.9
20260906031506 67 25 0.0 0.0 0.00 0.00 0.00 92 1018.9
20260906030135 67 25 0.0 1.0 0.00 0.00 0.00 92 1018.9
20260906024607 68 284 0.0 2.0 0.00 0.00 0.00 93 1019.0
20260906023012 68 278 1.0 3.0 0.00 0.00 0.00 93 1018.6
20260906021511 68 6 0.0 0.0 0.00 0.00 0.00 90 1017.8
20260906020009 69 6 0.0 0.0 0.00 0.00 0.00 90 1017.5
20260906014509 69 18 0.0 2.0 0.00 0.00 0.00 89 1016.9
20260906013009 69 30 0.0 3.0 0.00 0.00 0.00 88 1016.8
20260906011506 70 120 0.0 2.0 0.00 0.00 0.00 87 1016.6
20260906010104 70 36 0.0 3.0 0.00 0.00 0.00 84 1016.6
20260906004512 71 69 0.0 3.0 0.00 0.00 0.00 82 1016.3
20260906003010 72 53 0.0 4.0 0.00 0.00 0.00 81 1016.5
20260906001508 73 32 0.0 3.0 0.00 0.00 0.00 80 1016.7
20260906000005 73 36 1.0 4.0 0.00 0.00 0.00 79 1016.7
20260905234506 74 44 1.0 5.0 0.00 0.00 0.00 78 1016.8
20260905233004 75 94 1.0 9.0 0.00 0.00 0.00 77 1016.7
20260905231604 75 68 2.0 6.0 0.00 0.00 0.00 77 1016.7
20260905230012 77 69 1.0 4.0 0.00 0.00 0.00 75 1017.0
20260905224511 78 32 1.0 4.0 0.00 0.00 0.00 73 1017.0
20260905223012 78 18 1.0 5.0 0.00 0.00 0.00 72 1017.2
20260905221511 78 64 1.0 6.0 0.00 0.00 0.00 72 1017.1
20260905220006 78 57 0.0 4.0 0.00 0.00 0.00 73 1017.0
20260905214503 78 345 1.0 4.0 0.00 0.00 0.00 72 1017.4
20260905213004 78 33 1.0 4.0 0.00 0.00 0.00 72 1017.5
20260905211603 78 86 1.0 8.0 0.00 0.00 0.00 72 1017.6
20260905210014 78 57 1.0 4.0 0.00 0.00 0.00 73 1017.9
20260905204512 78 118 1.0 3.0 0.00 0.00 0.00 73 1018.0
20260905203010 79 145 1.0 6.0 0.00 0.00 0.00 72 1017.8
20260905201509 81 350 2.0 4.0 0.00 0.00 0.00 70 1018.0
20260905200008 79 14 0.0 3.0 0.00 0.00 0.00 73 1017.8
20260905194603 78 38 1.0 3.0 0.00 0.00 0.00 75 1017.9
20260905193024 80 33 1.0 4.0 0.00 0.00 0.00 70 1018.0
20260905191509 79 80 0.0 3.0 0.00 0.00 0.00 72 1017.9
20260905190013 78 180 1.0 6.0 0.00 0.00 0.00 73 1017.9
20260905184508 80 40 0.0 3.0 0.00 0.00 0.00 71 1017.7
20260905183104 80 325 1.0 3.0 0.00 0.00 0.00 70 1017.9
20260905180011 78 260 0.0 2.0 0.00 0.00 0.00 75 1018.6
20260905174518 78 267 1.0 4.0 0.00 0.00 0.00 76 1018.6
20260905173004 76 340 1.0 3.0 0.00 0.00 0.00 78 1018.8
20260905171605 76 311 0.0 2.0 0.00 0.00 0.00 77 1018.8
20260905170007 76 168 0.0 2.0 0.00 0.00 0.00 80 1018.8
20260905164504 76 288 0.0 2.0 0.00 0.00 0.00 81 1018.8
20260905163108 74 51 0.0 2.0 0.00 0.00 0.00 84 1018.7
20260905161506 71 123 1.0 3.0 0.00 0.00 0.00 88 1018.9
20260905154506 68 91 0.0 4.0 0.00 0.00 0.00 93 1018.9